When you browse on this site, cookies collect data to enhance your experience and personalize the content and advertising you see.
Visit our Privacy Policy to learn more. By continuing to use the site, you agree to this use of cookies and data.
  • In Portugal
  • List of Countries
  • For 7 days
  • Water Temperature
  • Satellite Maps
  • Weather Map
  • Weather Widgets
  • user-avatar
    Login

    Hourly Weather Ondjiwa

    Today, 27 May, Monday

    Time Temperature Precipitation Wind Pressure Humidity
    00:00 +16°C° 0 mm 2 mps 668 mmHg 42%
    01:00 +15°C° 0 mm 2 mps 668 mmHg 44%
    02:00 +15°C° 0 mm 2 mps 668 mmHg 46%
    03:00 +14°C° 0 mm 2 mps 668 mmHg 48%
    04:00 +14°C° 0 mm 2 mps 668 mmHg 50%
    05:00 +14°C° 0 mm 2 mps 668 mmHg 51%
    06:00 +14°C° 0 mm 2 mps 668 mmHg 52%
    07:00 +13°C° 0 mm 2 mps 669 mmHg 53%
    08:00 +17°C° 0 mm 3 mps 669 mmHg 45%
    09:00 +21°C° 0 mm 4 mps 670 mmHg 37%
    10:00 +25°C° 0 mm 5 mps 671 mmHg 29%
    11:00 +27°C° 0 mm 4 mps 670 mmHg 26%
    12:00 +28°C° 0 mm 4 mps 670 mmHg 23%
    13:00 +29°C° 0 mm 3 mps 670 mmHg 20%
    14:00 +29°C° 0 mm 3 mps 669 mmHg 19%
    15:00 +29°C° 0 mm 3 mps 668 mmHg 19%
    16:00 +29°C° 0 mm 2 mps 668 mmHg 18%
    17:00 +27°C° 0 mm 2 mps 668 mmHg 21%
    18:00 +24°C° 0 mm 2 mps 667 mmHg 25%
    19:00 +20°C° 0 mm 2 mps 667 mmHg 29%
    20:00 +19°C° 0 mm 2 mps 667 mmHg 30%
    21:00 +18°C° 0 mm 2 mps 667 mmHg 31%
    22:00 +17°C° 0 mm 2 mps 667 mmHg 33%
    23:00 +17°C° 0 mm 2 mps 667 mmHg 33%

    Tomorrow, 28 May, Tuesday

    Time Temperature Precipitation Wind Pressure Humidity
    00:00 +16°C° 0 mm 2 mps 667 mmHg 34%
    01:00 +15°C° 0 mm 2 mps 667 mmHg 35%
    02:00 +14°C° 0 mm 3 mps 667 mmHg 35%
    03:00 +14°C° 0 mm 3 mps 667 mmHg 36%
    04:00 +13°C° 0 mm 3 mps 667 mmHg 36%
    05:00 +13°C° 0 mm 3 mps 667 mmHg 37%
    06:00 +13°C° 0 mm 3 mps 668 mmHg 38%
    07:00 +13°C° 0 mm 3 mps 668 mmHg 38%
    08:00 +18°C° 0 mm 3 mps 669 mmHg 32%
    09:00 +21°C° 0 mm 4 mps 669 mmHg 27%
    10:00 +26°C° 0 mm 5 mps 670 mmHg 21%
    11:00 +28°C° 0 mm 4 mps 670 mmHg 19%
    12:00 +29°C° 0 mm 4 mps 669 mmHg 18%
    13:00 +31°C° 0 mm 3 mps 669 mmHg 16%
    14:00 +31°C° 0 mm 2 mps 668 mmHg 16%
    15:00 +31°C° 0 mm 2 mps 668 mmHg 15%
    16:00 +31°C° 0 mm 1 mps 667 mmHg 15%
    17:00 +28°C° 0 mm 1 mps 667 mmHg 18%
    18:00 +25°C° 0 mm 1 mps 667 mmHg 22%
    19:00 +21°C° 0 mm 2 mps 666 mmHg 25%
    20:00 +20°C° 0 mm 2 mps 666 mmHg 27%
    21:00 +19°C° 0 mm 2 mps 667 mmHg 29%
    22:00 +18°C° 0 mm 2 mps 667 mmHg 31%
    23:00 +18°C° 0 mm 2 mps 667 mmHg 33%

    Day after tomorrow, 29 May, Wednesday

    Time Temperature Precipitation Wind Pressure Humidity
    00:00 +17°C° 0 mm 2 mps 666 mmHg 35%
    01:00 +16°C° 0 mm 2 mps 666 mmHg 37%
    02:00 +16°C° 0 mm 1 mps 666 mmHg 39%
    03:00 +15°C° 0 mm 1 mps 666 mmHg 41%
    04:00 +14°C° 0 mm 1 mps 666 mmHg 43%
    05:00 +14°C° 0 mm 1 mps 666 mmHg 44%
    06:00 +14°C° 0 mm 1 mps 667 mmHg 44%
    07:00 +14°C° 0 mm 1 mps 667 mmHg 45%
    08:00 +18°C° 0 mm 2 mps 668 mmHg 38%
    09:00 +22°C° 0 mm 3 mps 669 mmHg 31%
    10:00 +27°C° 0 mm 4 mps 670 mmHg 25%
    11:00 +29°C° 0 mm 4 mps 669 mmHg 23%
    12:00 +30°C° 0 mm 4 mps 669 mmHg 21%
    13:00 +33°C° 0 mm 3 mps 669 mmHg 19%
    14:00 +33°C° 0 mm 3 mps 668 mmHg 18%
    15:00 +32°C° 0 mm 2 mps 667 mmHg 18%
    16:00 +32°C° 0 mm 1 mps 667 mmHg 17%
    17:00 +29°C° 0 mm 1 mps 667 mmHg 21%
    18:00 +27°C° 0 mm 1 mps 666 mmHg 25%
    19:00 +24°C° 0 mm 1 mps 666 mmHg 28%
    20:00 +23°C° 0 mm 2 mps 667 mmHg 30%
    21:00 +23°C° 0 mm 2 mps 667 mmHg 31%
    22:00 +21°C° 0 mm 2 mps 667 mmHg 32%
    23:00 +21°C° 0 mm 2 mps 667 mmHg 32%

    30 May, Thursday

    Time Temperature Precipitation Wind Pressure Humidity
    00:00 +22°C° 0 mm 1 mps 667 mmHg 32%
    01:00 +22°C° 0 mm 1 mps 667 mmHg 32%
    02:00 +21°C° 0 mm 1 mps 667 mmHg 35%
    03:00 +20°C° 0 mm 1 mps 667 mmHg 38%
    04:00 +19°C° 0 mm 1 mps 666 mmHg 41%
    05:00 +18°C° 0 mm 1 mps 667 mmHg 43%
    06:00 +18°C° 0 mm 1 mps 667 mmHg 44%
    07:00 +16°C° 0 mm 2 mps 667 mmHg 45%
    08:00 +20°C° 0 mm 2 mps 668 mmHg 38%
    09:00 +25°C° 0 mm 3 mps 669 mmHg 31%
    10:00 +28°C° 0 mm 4 mps 670 mmHg 24%
    11:00 +30°C° 0 mm 4 mps 670 mmHg 22%
    12:00 +33°C° 0 mm 4 mps 669 mmHg 20%
    13:00 +34°C° 0 mm 4 mps 669 mmHg 19%
    14:00 +34°C° 0 mm 3 mps 668 mmHg 18%
    15:00 +34°C° 0 mm 3 mps 667 mmHg 18%
    16:00 +34°C° 0 mm 2 mps 667 mmHg 17%
    17:00 +30°C° 0 mm 2 mps 667 mmHg 21%
    18:00 +27°C° 0 mm 1 mps 667 mmHg 24%
    19:00 +25°C° 0 mm 1 mps 666 mmHg 28%
    20:00 +24°C° 0 mm 1 mps 667 mmHg 29%
    21:00 +24°C° 0 mm 1 mps 667 mmHg 30%
    22:00 +23°C° 0 mm 2 mps 667 mmHg 31%
    23:00 +23°C° 0 mm 1 mps 667 mmHg 31%

    31 May, Friday

    Time Temperature Precipitation Wind Pressure Humidity
    00:00 +22°C° 0 mm 1 mps 667 mmHg 32%
    01:00 +22°C° 0 mm 1 mps 667 mmHg 33%
    02:00 +22°C° 0 mm 1 mps 667 mmHg 34%
    03:00 +21°C° 0 mm 1 mps 667 mmHg 35%
    04:00 +18°C° 0 mm 0 mps 667 mmHg 37%
    05:00 +20°C° 0 mm 1 mps 667 mmHg 38%
    06:00 +19°C° 0 mm 1 mps 667 mmHg 40%
    07:00 +19°C° 0 mm 1 mps 668 mmHg 41%
    08:00 +21°C° 0 mm 2 mps 668 mmHg 35%
    09:00 +26°C° 0 mm 3 mps 669 mmHg 29%
    10:00 +29°C° 0 mm 4 mps 670 mmHg 22%
    11:00 +32°C° 0 mm 4 mps 670 mmHg 20%
    12:00 +33°C° 0 mm 4 mps 669 mmHg 18%
    13:00 +34°C° 0 mm 3 mps 668 mmHg 17%
    14:00 +34°C° 0 mm 3 mps 668 mmHg 16%
    15:00 +34°C° 0 mm 2 mps 667 mmHg 16%
    16:00 +33°C° 0 mm 1 mps 667 mmHg 16%
    17:00 +31°C° 0 mm 1 mps 667 mmHg 18%
    18:00 +29°C° 0 mm 1 mps 667 mmHg 20%
    19:00 +27°C° 0 mm 2 mps 667 mmHg 23%
    20:00 +27°C° 0 mm 1 mps 667 mmHg 23%
    21:00 +26°C° 0 mm 1 mps 667 mmHg 24%
    22:00 +26°C° 0 mm 1 mps 668 mmHg 25%
    23:00 +25°C° 0 mm 1 mps 667 mmHg 26%

    1 June, Saturday

    Time Temperature Precipitation Wind Pressure Humidity
    00:00 +24°C° 0 mm 2 mps 667 mmHg 28%
    01:00 +23°C° 0 mm 2 mps 667 mmHg 29%
    02:00 +21°C° 0 mm 2 mps 666 mmHg 31%
    03:00 +21°C° 0 mm 1 mps 666 mmHg 32%
    04:00 +20°C° 0 mm 1 mps 666 mmHg 34%
    05:00 +20°C° 0 mm 1 mps 667 mmHg 34%
    06:00 +20°C° 0 mm 1 mps 667 mmHg 34%
    07:00 +19°C° 0 mm 1 mps 668 mmHg 35%
    08:00 +22°C° 0 mm 3 mps 668 mmHg 29%
    09:00 +26°C° 0 mm 4 mps 669 mmHg 24%
    10:00 +29°C° 0 mm 5 mps 670 mmHg 19%
    11:00 +30°C° 0 mm 5 mps 669 mmHg 18%
    12:00 +30°C° 0 mm 4 mps 668 mmHg 17%
    13:00 +31°C° 0 mm 3 mps 668 mmHg 16%
    14:00 +33°C° 0 mm 3 mps 668 mmHg 16%
    15:00 +33°C° 0 mm 3 mps 667 mmHg 16%
    16:00 +33°C° 0 mm 3 mps 667 mmHg 16%
    17:00 +30°C° 0 mm 3 mps 667 mmHg 18%
    18:00 +27°C° 0 mm 3 mps 667 mmHg 21%
    19:00 +25°C° 0 mm 3 mps 667 mmHg 24%
    20:00 +24°C° 0 mm 2 mps 667 mmHg 25%
    21:00 +23°C° 0 mm 2 mps 668 mmHg 26%
    22:00 +23°C° 0 mm 2 mps 668 mmHg 26%
    23:00 +21°C° 0 mm 2 mps 668 mmHg 26%
    Show more